Location: Kernascl�den
(48.0062°N, 3.3198°W)
Time: 15:22:55
(UTC+00:00)

USA 267 - Pass Details

Date: 21 January 2021
Orbit: 1102 x 1106 km, 123.0° (Epoch: 22 February)

Event Time Altitude Azimuth Distance (km) Brightness Sun altitude
Exits shadow 20:54:39 33° 236° (SW) 1,760 4.5 -39.3°
Drops below altitude 10° 20:57:57 10° 237° (WSW) 2,957 5.9 -39.9°
Sets 21:00:26 0° 237° (WSW) 3,913 6.6 -40.3°
